DAL8891 KMKE-KDTW

Flight info

Callsign DAL8891
Flight time 1h 0m
Altitude 25000
Route PORZL RKCTY2
Aircraft CRJ9/M-SDFGIRWY/S

Departure

Time 2026-05-04 00:07
Airport General Mitchell International Airport (KMKE)

Arrival

Time 2026-05-04 01:08
Airport Detroit Metropolitan Wayne County Airport (KDTW)
Time Latitude Longitude Altitude Speed Heading
2026-05-03 23:15 42.94797 -87.89810 686 ft 0 kts 277°
2026-05-03 23:44 42.94797 -87.89809 686 ft 0 kts 277°
2026-05-03 23:44 42.94797 -87.89802 686 ft 1 kts 277°
2026-05-03 23:44 42.94796 -87.89799 686 ft 0 kts 277°
2026-05-03 23:44 42.94796 -87.89798 686 ft 0 kts 277°
2026-05-03 23:45 42.94795 -87.89781 682 ft 2 kts 277°
2026-05-03 23:45 42.94793 -87.89759 684 ft 2 kts 277°
2026-05-03 23:45 42.94791 -87.89737 681 ft 2 kts 277°
2026-05-03 23:45 42.94790 -87.89722 680 ft 2 kts 277°
2026-05-03 23:46 42.94789 -87.89701 681 ft 2 kts 250°
2026-05-03 23:46 42.94789 -87.89700 680 ft 0 kts 250°
2026-05-03 23:57 42.94788 -87.89704 683 ft 1 kts 249°
2026-05-03 23:57 42.94786 -87.89708 684 ft 0 kts 220°
2026-05-03 23:58 42.94772 -87.89719 683 ft 3 kts 202°
2026-05-03 23:58 42.94743 -87.89727 686 ft 6 kts 184°
2026-05-03 23:58 42.94677 -87.89740 681 ft 13 kts 191°
2026-05-03 23:58 42.94593 -87.89780 684 ft 8 kts 229°
2026-05-03 23:59 42.94566 -87.89840 684 ft 7 kts 239°
2026-05-03 23:59 42.94541 -87.89899 683 ft 7 kts 243°
2026-05-03 23:59 42.94521 -87.89951 686 ft 5 kts 224°
2026-05-03 23:59 42.94497 -87.89964 686 ft 2 kts 181°
2026-05-04 00:00 42.94488 -87.89962 681 ft 2 kts 162°
2026-05-04 00:00 42.94474 -87.89944 686 ft 2 kts 107°
2026-05-04 00:00 42.94477 -87.89914 686 ft 6 kts 71°
2026-05-04 00:00 42.94498 -87.89830 686 ft 13 kts 71°
2026-05-04 00:01 42.94538 -87.89694 684 ft 17 kts 51°
2026-05-04 00:01 42.94559 -87.89666 686 ft 15 kts 37°
2026-05-04 00:01 42.94602 -87.89630 686 ft 12 kts 45°
2026-05-04 00:02 42.94619 -87.89537 686 ft 9 kts 97°
2026-05-04 00:02 42.94611 -87.89445 689 ft 10 kts 97°
2026-05-04 00:02 42.94614 -87.89354 686 ft 9 kts 72°
2026-05-04 00:02 42.94634 -87.89269 684 ft 10 kts 72°
2026-05-04 00:03 42.94655 -87.89179 686 ft 10 kts 70°
2026-05-04 00:03 42.94679 -87.89086 684 ft 11 kts 70°
2026-05-04 00:03 42.94703 -87.88990 686 ft 11 kts 72°
2026-05-04 00:03 42.94709 -87.88904 686 ft 7 kts 121°
2026-05-04 00:04 42.94690 -87.88882 684 ft 3 kts 158°
2026-05-04 00:04 42.94682 -87.88878 686 ft 0 kts 158°
2026-05-04 00:04 42.94680 -87.88877 686 ft 1 kts 158°
2026-05-04 00:04 42.94679 -87.88876 686 ft 0 kts 158°
2026-05-04 00:06 42.94676 -87.88874 682 ft 1 kts 158°
2026-05-04 00:06 42.94663 -87.88867 684 ft 4 kts 160°
2026-05-04 00:06 42.94631 -87.88871 686 ft 5 kts 205°
2026-05-04 00:06 42.94606 -87.88908 686 ft 5 kts 245°
2026-05-04 00:07 42.94586 -87.88975 684 ft 16 kts 249°
2026-05-04 00:07 42.94473 -87.89453 683 ft 91 kts 251°
2026-05-04 00:07 42.94211 -87.90546 695 ft 147 kts 252°
2026-05-04 00:07 42.93926 -87.91904 1345 ft 144 kts 255°
2026-05-04 00:08 42.93669 -87.93145 2240 ft 128 kts 253°
2026-05-04 00:08 42.93660 -87.94356 2786 ft 140 kts 289°
2026-05-04 00:08 42.94481 -87.95256 3172 ft 174 kts 337°
2026-05-04 00:08 42.95715 -87.94999 3774 ft 189 kts 27°
2026-05-04 00:09 42.96481 -87.93556 4463 ft 195 kts 67°
2026-05-04 00:09 42.97021 -87.91890 5131 ft 187 kts 55°
2026-05-04 00:09 42.97775 -87.90482 5685 ft 186 kts 40°
2026-05-04 00:09 42.98607 -87.89153 6321 ft 182 kts 49°
2026-05-04 00:10 42.99255 -87.87701 6971 ft 175 kts 52°
2026-05-04 00:10 42.99923 -87.86301 7443 ft 179 kts 50°
2026-05-04 00:10 43.00612 -87.84854 7886 ft 181 kts 50°
2026-05-04 00:10 43.01317 -87.83327 8187 ft 207 kts 52°
2026-05-04 00:11 43.02148 -87.81537 8485 ft 238 kts 52°
2026-05-04 00:11 43.03041 -87.79557 9196 ft 247 kts 55°
2026-05-04 00:11 43.03800 -87.77521 10355 ft 233 kts 62°
2026-05-04 00:11 43.04324 -87.75435 11238 ft 236 kts 71°
2026-05-04 00:12 43.04604 -87.73206 11617 ft 260 kts 82°
2026-05-04 00:12 43.04598 -87.70863 12097 ft 274 kts 94°
2026-05-04 00:12 43.04545 -87.68282 12893 ft 272 kts 82°
2026-05-04 00:12 43.04818 -87.65745 13734 ft 267 kts 76°
2026-05-04 00:13 43.05129 -87.63289 14594 ft 258 kts 77°
2026-05-04 00:13 43.05367 -87.60847 15220 ft 263 kts 81°
2026-05-04 00:13 43.05466 -87.58295 15515 ft 282 kts 86°
2026-05-04 00:13 43.05468 -87.57949 15547 ft 284 kts 86°
2026-05-04 00:14 43.05451 -87.55927 15889 ft 289 kts 89°
2026-05-04 00:14 43.05297 -87.53243 16836 ft 276 kts 95°
2026-05-04 00:14 43.05268 -87.50651 17386 ft 277 kts 77°
2026-05-04 00:15 43.05589 -87.47972 17537 ft 294 kts 75°
2026-05-04 00:15 43.06125 -87.45281 18050 ft 291 kts 61°
2026-05-04 00:15 43.06955 -87.42650 18064 ft 315 kts 60°
2026-05-04 00:15 43.07815 -87.39979 19049 ft 288 kts 62°
2026-05-04 00:16 43.08603 -87.37564 19963 ft 277 kts 57°
2026-05-04 00:16 43.08705 -87.37284 20008 ft 277 kts 56°
2026-05-04 00:17 43.09096 -87.36224 20147 ft 280 kts 56°
2026-05-04 00:17 43.09950 -87.33851 20487 ft 287 kts 59°
2026-05-04 00:18 43.10702 -87.31370 20986 ft 289 kts 65°
2026-05-04 00:18 43.11391 -87.28819 21425 ft 290 kts 61°
2026-05-04 00:18 43.12190 -87.26276 21832 ft 292 kts 60°
2026-05-04 00:18 43.12983 -87.23713 22260 ft 295 kts 60°
2026-05-04 00:19 43.14032 -87.21191 21940 ft 316 kts 46°
2026-05-04 00:19 43.15132 -87.19243 22468 ft 305 kts 44°
2026-05-04 00:20 43.15543 -87.18539 22933 ft 292 kts 44°
2026-05-04 00:20 43.16622 -87.16614 24181 ft 258 kts 46°
2026-05-04 00:22 43.17382 -87.15147 24191 ft 272 kts 47°
2026-05-04 00:22 43.18615 -87.12808 23130 ft 330 kts 47°
2026-05-04 00:22 43.19957 -87.10258 23652 ft 322 kts 52°
2026-05-04 00:22 43.20907 -87.07739 25269 ft 279 kts 62°
2026-05-04 00:23 43.21682 -87.05199 25136 ft 302 kts 60°
2026-05-04 00:23 43.22903 -87.02835 24908 ft 309 kts 41°
2026-05-04 00:23 43.24205 -87.00472 24941 ft 332 kts 61°
2026-05-04 00:23 43.24820 -86.97332 24979 ft 357 kts 84°
2026-05-04 00:24 43.24706 -86.93842 24969 ft 375 kts 94°
2026-05-04 00:24 43.24508 -86.90203 24872 ft 390 kts 89°
2026-05-04 00:24 43.24634 -86.86436 24823 ft 401 kts 82°
2026-05-04 00:24 43.24958 -86.82583 24814 ft 412 kts 81°
2026-05-04 00:25 43.25300 -86.78621 24825 ft 425 kts 82°
2026-05-04 00:25 43.25621 -86.74541 24819 ft 436 kts 82°
2026-05-04 00:25 43.25906 -86.70348 24818 ft 447 kts 83°
2026-05-04 00:25 43.26172 -86.66116 24810 ft 457 kts 84°
2026-05-04 00:26 43.26404 -86.61821 24814 ft 466 kts 84°
2026-05-04 00:26 43.26637 -86.57455 24798 ft 474 kts 84°
2026-05-04 00:26 43.26920 -86.52910 24794 ft 482 kts 83°
2026-05-04 00:26 43.27220 -86.48290 24796 ft 490 kts 84°
2026-05-04 00:27 43.27517 -86.43598 24792 ft 496 kts 83°
2026-05-04 00:27 43.27812 -86.38848 24790 ft 502 kts 84°
2026-05-04 00:27 43.28113 -86.34043 24788 ft 508 kts 84°
2026-05-04 00:27 43.28408 -86.29252 24770 ft 513 kts 84°
2026-05-04 00:28 43.28704 -86.24335 24731 ft 517 kts 84°
2026-05-04 00:28 43.29003 -86.19400 24702 ft 521 kts 84°
2026-05-04 00:28 43.29307 -86.14426 24683 ft 524 kts 84°
2026-05-04 00:28 43.29401 -86.11869 25431 ft 285 kts 84°
2026-05-04 00:29 43.29471 -86.09167 25318 ft 301 kts 79°
2026-05-04 00:29 43.29734 -86.06167 24886 ft 332 kts 77°
2026-05-04 00:29 43.29994 -86.02861 24486 ft 364 kts 82°
2026-05-04 00:29 43.30034 -85.99241 24100 ft 394 kts 86°
2026-05-04 00:30 43.30013 -85.95348 23714 ft 421 kts 86°
2026-05-04 00:30 43.30000 -85.91217 23366 ft 444 kts 86°
2026-05-04 00:30 43.30011 -85.86949 23550 ft 451 kts 86°
2026-05-04 00:30 43.30039 -85.82603 23670 ft 459 kts 86°
2026-05-04 00:31 43.30067 -85.78268 23760 ft 448 kts 86°
2026-05-04 00:31 43.30089 -85.74017 23848 ft 443 kts 85°
2026-05-04 00:31 43.30108 -85.69804 23917 ft 438 kts 85°
2026-05-04 00:31 43.30126 -85.65632 23984 ft 435 kts 85°
2026-05-04 00:32 43.30139 -85.61503 24042 ft 431 kts 85°
2026-05-04 00:32 43.30150 -85.57406 24115 ft 428 kts 85°
2026-05-04 00:32 43.30160 -85.53333 24175 ft 426 kts 84°
2026-05-04 00:32 43.30170 -85.49265 24234 ft 426 kts 84°
2026-05-04 00:33 43.30177 -85.45211 24290 ft 425 kts 84°
2026-05-04 00:33 43.30180 -85.39960 24378 ft 424 kts 84°
2026-05-04 00:33 43.30180 -85.33268 24473 ft 421 kts 83°
2026-05-04 00:34 43.30180 -85.29313 24549 ft 419 kts 83°
2026-05-04 00:34 43.30182 -85.25322 24654 ft 416 kts 83°
2026-05-04 00:34 43.30008 -85.21291 24164 ft 434 kts 98°
2026-05-04 00:34 43.28944 -85.17349 23677 ft 450 kts 118°
2026-05-04 00:35 43.27110 -85.13810 23277 ft 460 kts 127°
2026-05-04 00:35 43.25137 -85.10299 22900 ft 469 kts 126°
2026-05-04 00:35 43.23247 -85.06638 22866 ft 469 kts 123°
2026-05-04 00:35 43.21500 -85.02860 22786 ft 470 kts 121°
2026-05-04 00:36 43.19799 -84.99034 22805 ft 469 kts 121°
2026-05-04 00:36 43.18079 -84.95255 22803 ft 468 kts 122°
2026-05-04 00:36 43.16311 -84.91513 22652 ft 470 kts 123°
2026-05-04 00:36 43.14537 -84.87758 22189 ft 460 kts 122°
2026-05-04 00:37 43.12820 -84.84182 21731 ft 441 kts 124°
2026-05-04 00:37 43.11104 -84.80775 21290 ft 427 kts 125°
2026-05-04 00:37 43.09434 -84.77485 20876 ft 416 kts 124°
2026-05-04 00:37 43.07815 -84.74266 20474 ft 406 kts 125°
2026-05-04 00:38 43.06310 -84.71270 20132 ft 398 kts 125°
2026-05-04 00:38 43.04761 -84.68183 19770 ft 390 kts 125°
2026-05-04 00:38 43.03238 -84.65159 19426 ft 383 kts 125°
2026-05-04 00:38 43.01776 -84.62251 19093 ft 373 kts 126°
2026-05-04 00:39 43.00323 -84.59367 18831 ft 362 kts 126°
2026-05-04 00:39 42.98941 -84.56634 18818 ft 345 kts 126°
2026-05-04 00:39 42.97593 -84.53984 18618 ft 337 kts 127°
2026-05-04 00:39 42.96250 -84.51375 18301 ft 334 kts 128°
2026-05-04 00:40 42.94907 -84.48792 17973 ft 331 kts 127°
2026-05-04 00:40 42.93605 -84.46213 17627 ft 328 kts 126°
2026-05-04 00:40 42.92351 -84.43627 17300 ft 325 kts 126°
2026-05-04 00:40 42.91107 -84.41066 16988 ft 322 kts 127°
2026-05-04 00:41 42.89858 -84.38546 16680 ft 319 kts 127°
2026-05-04 00:41 42.88619 -84.36052 16384 ft 316 kts 127°
2026-05-04 00:41 42.87388 -84.33576 16079 ft 314 kts 126°
2026-05-04 00:41 42.86167 -84.31118 15789 ft 312 kts 126°
2026-05-04 00:42 42.84954 -84.28680 15553 ft 307 kts 126°
2026-05-04 00:42 42.83775 -84.26310 15568 ft 299 kts 126°
2026-05-04 00:42 42.82617 -84.23984 15563 ft 294 kts 126°
2026-05-04 00:42 42.81493 -84.21728 15554 ft 290 kts 126°
2026-05-04 00:43 42.80370 -84.19473 15540 ft 286 kts 127°
2026-05-04 00:43 42.79259 -84.17247 15528 ft 282 kts 127°
2026-05-04 00:43 42.78165 -84.15054 15474 ft 280 kts 126°
2026-05-04 00:43 42.77050 -84.12827 15154 ft 289 kts 127°
2026-05-04 00:44 42.75901 -84.10544 14884 ft 296 kts 126°
2026-05-04 00:44 42.74741 -84.08199 14599 ft 302 kts 126°
2026-05-04 00:44 42.73553 -84.05811 14317 ft 307 kts 126°
2026-05-04 00:44 42.72346 -84.03395 14014 ft 312 kts 126°
2026-05-04 00:45 42.71158 -84.01015 13723 ft 316 kts 126°
2026-05-04 00:45 42.69916 -83.98532 13376 ft 320 kts 126°
2026-05-04 00:45 42.68692 -83.95987 13017 ft 323 kts 119°
2026-05-04 00:45 42.67916 -83.93116 12659 ft 326 kts 105°
2026-05-04 00:46 42.67404 -83.90101 12315 ft 327 kts 102°
2026-05-04 00:46 42.66941 -83.87069 11966 ft 328 kts 102°
2026-05-04 00:46 42.66464 -83.84035 11618 ft 328 kts 103°
2026-05-04 00:46 42.65932 -83.81022 11278 ft 328 kts 105°
2026-05-04 00:47 42.65364 -83.78058 10924 ft 328 kts 105°
2026-05-04 00:47 42.64793 -83.75063 10580 ft 327 kts 105°
2026-05-04 00:47 42.64226 -83.72073 10246 ft 326 kts 105°
2026-05-04 00:47 42.63661 -83.69099 9945 ft 323 kts 105°
2026-05-04 00:48 42.63111 -83.66223 9948 ft 307 kts 106°
2026-05-04 00:48 42.62575 -83.63480 9816 ft 298 kts 107°
2026-05-04 00:48 42.62002 -83.60769 9399 ft 299 kts 108°
2026-05-04 00:48 42.61412 -83.58052 9003 ft 299 kts 108°
2026-05-04 00:49 42.60841 -83.55368 8611 ft 294 kts 108°
2026-05-04 00:49 42.60271 -83.52702 8237 ft 294 kts 108°
2026-05-04 00:49 42.59702 -83.50038 7872 ft 293 kts 108°
2026-05-04 00:49 42.59132 -83.47380 7517 ft 293 kts 108°
2026-05-04 00:50 42.58564 -83.44733 7169 ft 292 kts 108°
2026-05-04 00:50 42.57998 -83.42095 6814 ft 291 kts 108°
2026-05-04 00:50 42.57431 -83.39466 6480 ft 289 kts 108°
2026-05-04 00:50 42.56880 -83.36886 6131 ft 288 kts 108°
2026-05-04 00:51 42.56391 -83.34270 5811 ft 285 kts 98°
2026-05-04 00:51 42.56390 -83.31632 5517 ft 283 kts 88°
2026-05-04 00:51 42.56496 -83.29041 5200 ft 281 kts 88°
2026-05-04 00:51 42.56582 -83.26398 4893 ft 279 kts 90°
2026-05-04 00:52 42.56599 -83.23766 4589 ft 278 kts 93°
2026-05-04 00:52 42.56533 -83.21175 4362 ft 269 kts 104°
2026-05-04 00:52 42.55801 -83.18992 4200 ft 244 kts 141°
2026-05-04 00:52 42.54456 -83.17929 4060 ft 212 kts 180°
2026-05-04 00:53 42.53051 -83.17855 4009 ft 194 kts 189°
2026-05-04 00:53 42.51743 -83.17883 3983 ft 183 kts 190°
2026-05-04 00:53 42.50514 -83.17965 3928 ft 170 kts 204°
2026-05-04 00:53 42.49469 -83.18600 3855 ft 169 kts 213°
2026-05-04 00:54 42.48421 -83.19323 3784 ft 167 kts 213°
2026-05-04 00:54 42.47436 -83.19994 3799 ft 158 kts 213°
2026-05-04 00:54 42.46433 -83.20678 3742 ft 160 kts 214°
2026-05-04 00:54 42.45443 -83.21365 3648 ft 164 kts 213°
2026-05-04 00:55 42.44421 -83.22084 3552 ft 167 kts 213°
2026-05-04 00:55 42.43374 -83.22797 3454 ft 170 kts 212°
2026-05-04 00:55 42.42305 -83.23515 3357 ft 173 kts 211°
2026-05-04 00:55 42.41222 -83.24241 3249 ft 175 kts 211°
2026-05-04 00:56 42.40122 -83.24974 3132 ft 177 kts 211°
2026-05-04 00:56 42.39011 -83.25716 3019 ft 179 kts 211°
2026-05-04 00:56 42.37903 -83.26455 3029 ft 176 kts 210°
2026-05-04 00:56 42.36841 -83.27160 3008 ft 161 kts 210°
2026-05-04 00:57 42.35913 -83.27740 2998 ft 129 kts 210°
2026-05-04 00:57 42.35171 -83.28200 2943 ft 111 kts 211°
2026-05-04 00:57 42.34469 -83.28654 2755 ft 112 kts 212°
2026-05-04 00:57 42.33758 -83.29115 2631 ft 113 kts 212°
2026-05-04 00:58 42.33060 -83.29574 2520 ft 115 kts 212°
2026-05-04 00:58 42.32327 -83.30079 2455 ft 122 kts 212°
2026-05-04 00:58 42.31551 -83.30618 2360 ft 128 kts 212°
2026-05-04 00:58 42.31021 -83.30990 2287 ft 132 kts 211°
2026-05-04 00:59 42.29915 -83.31740 2162 ft 132 kts 210°
2026-05-04 00:59 42.29081 -83.32213 1945 ft 128 kts 205°
2026-05-04 00:59 42.28249 -83.32695 1679 ft 140 kts 210°
2026-05-04 00:59 42.27330 -83.33332 1492 ft 164 kts 208°
2026-05-04 01:00 42.26308 -83.33990 1336 ft 165 kts 210°
2026-05-04 01:00 42.25291 -83.34671 1115 ft 155 kts 210°
2026-05-04 01:00 42.24399 -83.35311 927 ft 142 kts 212°
2026-05-04 01:00 42.23509 -83.35976 835 ft 144 kts 216°
2026-05-04 01:01 42.22701 -83.36566 673 ft 121 kts 213°
2026-05-04 01:01 42.22034 -83.37088 648 ft 110 kts 211°
2026-05-04 01:01 42.21340 -83.37592 992 ft 115 kts 207°
2026-05-04 01:01 42.20550 -83.38160 1283 ft 150 kts 210°
2026-05-04 01:02 42.19452 -83.38990 1534 ft 202 kts 217°
2026-05-04 01:02 42.18789 -83.40538 1952 ft 188 kts 265°
2026-05-04 01:02 42.19457 -83.42075 1691 ft 220 kts 322°
2026-05-04 01:02 42.20978 -83.42670 1996 ft 235 kts 351°
2026-05-04 01:03 42.22719 -83.42522 1874 ft 265 kts
2026-05-04 01:03 42.24550 -83.42181 2334 ft 263 kts
2026-05-04 01:03 42.26278 -83.41299 2658 ft 275 kts 27°
2026-05-04 01:03 42.27964 -83.39961 2690 ft 290 kts 28°
2026-05-04 01:04 42.29543 -83.38650 3399 ft 233 kts 28°
2026-05-04 01:04 42.30359 -83.37924 3917 ft 190 kts 28°
2026-05-04 01:04 42.31332 -83.36607 3742 ft 210 kts 56°
2026-05-04 01:04 42.31918 -83.34763 3200 ft 213 kts 82°
2026-05-04 01:05 42.31658 -83.32659 2824 ft 153 kts 134°
2026-05-04 01:05 42.31123 -83.31998 2213 ft 164 kts 161°
2026-05-04 01:05 42.30069 -83.31813 1814 ft 142 kts 194°
2026-05-04 01:05 42.28918 -83.32332 1434 ft 131 kts 204°
2026-05-04 01:06 42.28336 -83.32678 1386 ft 145 kts 207°
2026-05-04 01:06 42.27360 -83.33284 1372 ft 162 kts 209°
2026-05-04 01:06 42.26394 -83.33943 1230 ft 148 kts 209°
2026-05-04 01:06 42.25565 -83.34572 1255 ft 132 kts 208°
2026-05-04 01:07 42.24733 -83.35154 984 ft 146 kts 207°
2026-05-04 01:07 42.23778 -83.35813 912 ft 153 kts 207°
2026-05-04 01:07 42.22871 -83.36466 732 ft 144 kts 208°
2026-05-04 01:07 42.22084 -83.37033 647 ft 111 kts 208°
2026-05-04 01:08 42.21526 -83.37447 647 ft 75 kts 209°
2026-05-04 01:08 42.21128 -83.37732 648 ft 54 kts 206°
2026-05-04 01:08 42.20977 -83.37741 648 ft 16 kts 168°
2026-05-04 01:08 42.20896 -83.37683 648 ft 6 kts 108°
2026-05-04 01:09 42.20895 -83.37668 648 ft 1 kts 77°
2026-05-04 01:09 42.20901 -83.37649 649 ft 2 kts 50°
2026-05-04 01:09 42.20911 -83.37639 649 ft 4 kts 27°
2026-05-04 01:09 42.20938 -83.37621 650 ft 8 kts 27°
2026-05-04 01:10 42.20998 -83.37580 649 ft 13 kts 27°